| time (UTC) | temp F | wind direction | speed knots | gust knots | rain 1hr in | rain 24hr in | rain mn in | humidity % | barometer mb |
| 20260507132712 | 50 | 188 | 0.0 | 2.6 | 0.00 | 0.00 | 0.00 | 41 | 1011.4 |
| 20260507132213 | 49 | 189 | 0.0 | 0.9 | 0.00 | 0.00 | 0.00 | 42 | 1011.5 |
| 20260507131712 | 49 | 189 | 0.0 | 2.6 | 0.00 | 0.00 | 0.00 | 42 | 1011.4 |
| 20260507131212 | 49 | 188 | 0.0 | 0.9 | 0.00 | 0.00 | 0.00 | 41 | 1011.2 |
| 20260507130712 | 49 | 188 | 0.0 | 1.7 | 0.00 | 0.00 | 0.00 | 41 | 1011.2 |
| 20260507130213 | 49 | 186 | 0.9 | 1.7 | 0.00 | 0.00 | 0.00 | 40 | 1011.2 |
| 20260507125712 | 49 | 186 | 0.9 | 4.3 | 0.00 | 0.00 | 0.00 | 38 | 1011.3 |
| 20260507125213 | 49 | 172 | 0.9 | 1.7 | 0.00 | 0.00 | 0.00 | 40 | 1011.5 |
| 20260507124713 | 49 | 172 | 0.9 | 3.5 | 0.00 | 0.00 | 0.00 | 39 | 1011.3 |
| 20260507124213 | 49 | 169 | 0.9 | 7.8 | 0.00 | 0.00 | 0.00 | 38 | 1011.4 |
| 20260507123713 | 49 | 158 | 0.0 | 2.6 | 0.00 | 0.00 | 0.00 | 40 | 1011.5 |
| 20260507123213 | 49 | 156 | 1.7 | 1.7 | 0.00 | 0.00 | 0.00 | 40 | 1011.5 |
| 20260507122713 | 48 | 156 | 1.7 | 10.4 | 0.00 | 0.00 | 0.00 | 39 | 1011.3 |
| 20260507122213 | 47 | 278 | 0.9 | 2.6 | 0.00 | 0.00 | 0.00 | 41 | 1011.2 |
| 20260507121713 | 47 | 278 | 0.9 | 2.6 | 0.00 | 0.00 | 0.00 | 41 | 1011.3 |
| 20260507121213 | 47 | 278 | 0.9 | 2.6 | 0.00 | 0.00 | 0.00 | 42 | 1011.3 |
| 20260507120713 | 48 | 278 | 0.9 | 1.7 | 0.00 | 0.00 | 0.00 | 41 | 1011.2 |
| 20260507120213 | 48 | 278 | 0.9 | 2.6 | 0.00 | 0.00 | 0.00 | 40 | 1011.1 |
| 20260507115713 | 48 | 278 | 0.0 | 1.7 | 0.00 | 0.00 | 0.00 | 39 | 1011.2 |
| 20260507115213 | 49 | 278 | 0.0 | 0.0 | 0.00 | 0.00 | 0.00 | 40 | 1011.2 |
| 20260507114713 | 49 | 278 | 0.0 | 0.0 | 0.00 | 0.00 | 0.00 | 38 | 1011.3 |
| 20260507114213 | 50 | 278 | 0.0 | 1.7 | 0.00 | 0.00 | 0.00 | 37 | 1011.3 |
| 20260507113713 | 50 | 278 | 0.0 | 1.7 | 0.00 | 0.00 | 0.00 | 37 | 1011.4 |
| 20260507113213 | 51 | 278 | 0.9 | 1.7 | 0.00 | 0.00 | 0.00 | 36 | 1011.6 |
| 20260507112713 | 51 | 278 | 0.9 | 1.7 | 0.00 | 0.00 | 0.00 | 35 | 1011.6 |
| 20260507112213 | 52 | 278 | 0.9 | 1.7 | 0.00 | 0.00 | 0.00 | 34 | 1011.7 |
| 20260507111713 | 53 | 278 | 1.7 | 2.6 | 0.00 | 0.00 | 0.00 | 34 | 1011.6 |
| 20260507111213 | 54 | 278 | 2.6 | 5.2 | 0.00 | 0.00 | 0.00 | 31 | 1011.6 |
| 20260507110713 | 54 | 278 | 2.6 | 9.6 | 0.00 | 0.00 | 0.00 | 30 | 1011.5 |
| 20260507110213 | 54 | 215 | 1.7 | 6.1 | 0.00 | 0.00 | 0.00 | 30 | 1011.5 |
| 20260507105713 | 54 | 220 | 1.7 | 6.1 | 0.00 | 0.00 | 0.00 | 30 | 1011.7 |
| 20260507105213 | 53 | 205 | 2.6 | 7.0 | 0.00 | 0.00 | 0.00 | 30 | 1011.7 |
| 20260507104713 | 53 | 222 | 2.6 | 6.1 | 0.00 | 0.00 | 0.00 | 30 | 1011.9 |
| 20260507104213 | 53 | 229 | 2.6 | 6.1 | 0.00 | 0.00 | 0.00 | 31 | 1011.7 |
| 20260507103713 | 53 | 235 | 1.7 | 7.0 | 0.00 | 0.00 | 0.00 | 31 | 1011.9 |
| 20260507103213 | 53 | 289 | 1.7 | 11.3 | 0.00 | 0.00 | 0.00 | 31 | 1011.9 |
| 20260507102713 | 52 | 254 | 1.7 | 4.3 | 0.00 | 0.00 | 0.00 | 32 | 1011.9 |
| 20260507102213 | 52 | 251 | 1.7 | 6.1 | 0.00 | 0.00 | 0.00 | 32 | 1012.0 |
| 20260507101713 | 52 | 257 | 1.7 | 4.3 | 0.00 | 0.00 | 0.00 | 34 | 1012.0 |
| 20260507101213 | 51 | 258 | 2.6 | 7.8 | 0.00 | 0.00 | 0.00 | 34 | 1011.9 |
| 20260507100713 | 51 | 254 | 2.6 | 6.1 | 0.00 | 0.00 | 0.00 | 35 | 1011.9 |
| 20260507100213 | 51 | 257 | 2.6 | 9.6 | 0.00 | 0.00 | 0.00 | 36 | 1012.1 |
| 20260507095713 | 50 | 290 | 2.6 | 6.1 | 0.00 | 0.00 | 0.00 | 37 | 1012.0 |
| 20260507095213 | 49 | 49 | 1.7 | 7.0 | 0.00 | 0.00 | 0.00 | 39 | 1012.2 |
| 20260507094713 | 49 | 182 | 0.9 | 2.6 | 0.00 | 0.00 | 0.00 | 39 | 1012.3 |
| 20260507094213 | 49 | 183 | 0.0 | 1.7 | 0.00 | 0.00 | 0.00 | 38 | 1012.5 |
| 20260507093713 | 49 | 183 | 0.0 | 1.7 | 0.00 | 0.00 | 0.00 | 39 | 1012.5 |
| 20260507093213 | 50 | 183 | 0.9 | 1.7 | 0.00 | 0.00 | 0.00 | 38 | 1012.6 |
| 20260507092713 | 50 | 183 | 0.9 | 2.6 | 0.00 | 0.00 | 0.00 | 38 | 1012.6 |
| 20260507092213 | 50 | 183 | 0.9 | 2.6 | 0.00 | 0.00 | 0.00 | 36 | 1012.6 |
| 20260507091713 | 50 | 184 | 0.9 | 2.6 | 0.00 | 0.00 | 0.00 | 37 | 1012.7 |
| 20260507091213 | 50 | 184 | 0.9 | 1.7 | 0.00 | 0.00 | 0.00 | 37 | 1012.7 |
| 20260507090713 | 50 | 184 | 0.9 | 0.0 | 0.00 | 0.02 | 0.00 | 36 | 1012.8 |
| 20260507090213 | 51 | 184 | 0.9 | 1.7 | 0.00 | 0.02 | 0.00 | 36 | 1012.9 |
| 20260507085713 | 51 | 182 | 0.9 | 2.6 | 0.00 | 0.02 | 0.00 | 36 | 1012.8 |
| 20260507085213 | 51 | 182 | 1.7 | 4.3 | 0.00 | 0.02 | 0.00 | 36 | 1012.8 |
| 20260507084713 | 51 | 0 | 1.7 | 5.2 | 0.00 | 0.02 | 0.00 | 35 | 1012.8 |
| 20260507084213 | 51 | 9 | 0.9 | 2.6 | 0.00 | 0.02 | 0.00 | 37 | 1013.0 |
| 20260507083713 | 51 | 9 | 0.9 | 2.6 | 0.00 | 0.02 | 0.00 | 36 | 1012.9 |
| 20260507083213 | 51 | 9 | 0.9 | 1.7 | 0.00 | 0.02 | 0.00 | 36 | 1013.2 |
| 20260507082713 | 51 | 9 | 1.7 | 3.5 | 0.00 | 0.02 | 0.00 | 36 | 1013.1 |
| 20260507082213 | 50 | 9 | 1.7 | 3.5 | 0.00 | 0.02 | 0.00 | 37 | 1013.1 |
| 20260507081713 | 50 | 23 | 1.7 | 3.5 | 0.00 | 0.02 | 0.00 | 35 | 1013.0 |
| 20260507081213 | 50 | 13 | 0.9 | 3.5 | 0.00 | 0.02 | 0.00 | 38 | 1013.1 |
| 20260507080713 | 49 | 11 | 0.9 | 4.3 | 0.00 | 0.09 | 0.00 | 39 | 1013.3 |
| 20260507080213 | 49 | 355 | 0.9 | 6.1 | 0.00 | 0.09 | 0.00 | 40 | 1013.2 |
| 20260507075713 | 49 | 38 | 0.9 | 1.7 | 0.00 | 0.09 | 0.00 | 40 | 1013.2 |
| 20260507075213 | 49 | 38 | 0.9 | 4.3 | 0.00 | 0.09 | 0.00 | 40 | 1013.3 |
| 20260507074713 | 49 | 38 | 0.0 | 0.0 | 0.00 | 0.09 | 0.00 | 40 | 1013.3 |
| 20260507074213 | 49 | 38 | 0.9 | 1.7 | 0.00 | 0.09 | 0.00 | 40 | 1013.4 |
| 20260507073713 | 49 | 38 | 0.0 | 2.6 | 0.00 | 0.09 | 0.00 | 40 | 1013.3 |
| 20260507073213 | 49 | 38 | 0.0 | 1.7 | 0.00 | 0.09 | 0.00 | 40 | 1013.4 |
| 20260507072713 | 49 | 38 | 0.0 | 1.7 | 0.00 | 0.09 | 0.00 | 41 | 1013.6 |
| 20260507072213 | 49 | 38 | 0.0 | 0.9 | 0.00 | 0.09 | 0.00 | 41 | 1013.6 |
| 20260507071713 | 48 | 38 | 0.0 | 1.7 | 0.00 | 0.09 | 0.00 | 41 | 1013.7 |
| 20260507071213 | 48 | 38 | 0.0 | 0.0 | 0.00 | 0.09 | 0.00 | 42 | 1013.7 |
| 20260507070713 | 48 | 38 | 0.0 | 0.0 | 0.00 | 0.09 | 0.00 | 41 | 1013.8 |
| 20260507070213 | 48 | 38 | 0.0 | 0.0 | 0.00 | 0.09 | 0.00 | 41 | 1013.8 |
| 20260507065713 | 47 | 38 | 0.0 | 0.0 | 0.00 | 0.09 | 0.00 | 42 | 1013.7 |
| 20260507065213 | 47 | 38 | 0.0 | 0.0 | 0.00 | 0.09 | 0.00 | 41 | 1013.7 |
| 20260507064713 | 48 | 38 | 0.0 | 0.0 | 0.00 | 0.09 | 0.00 | 41 | 1013.7 |
| 20260507064213 | 48 | 38 | 0.0 | 0.0 | 0.00 | 0.09 | 0.00 | 41 | 1013.7 |
| 20260507063713 | 48 | 38 | 0.0 | 0.0 | 0.00 | 0.09 | 0.00 | 41 | 1013.7 |
| 20260507063213 | 48 | 38 | 0.0 | 0.0 | 0.00 | 0.09 | 0.00 | 40 | 1013.7 |
| 20260507062713 | 48 | 38 | 0.0 | 0.9 | 0.00 | 0.09 | 0.00 | 40 | 1013.7 |
| 20260507062213 | 48 | 38 | 0.9 | 1.7 | 0.00 | 0.09 | 0.00 | 40 | 1013.7 |
| 20260507061713 | 48 | 38 | 0.0 | 2.6 | 0.00 | 0.09 | 0.00 | 41 | 1013.6 |
| 20260507061213 | 48 | 38 | 0.0 | 0.0 | 0.00 | 0.09 | 0.00 | 39 | 1013.6 |
| 20260507060713 | 48 | 38 | 0.0 | 0.0 | 0.00 | 0.09 | 0.00 | 40 | 1013.6 |
| 20260507060213 | 48 | 38 | 0.0 | 1.7 | 0.00 | 0.09 | 0.00 | 41 | 1013.6 |
| 20260507055713 | 48 | 38 | 0.0 | 0.9 | 0.00 | 0.09 | 0.09 | 40 | 1013.5 |
| 20260507055213 | 48 | 38 | 0.0 | 2.6 | 0.00 | 0.09 | 0.09 | 41 | 1013.5 |
| 20260507054713 | 48 | 38 | 0.0 | 0.0 | 0.00 | 0.09 | 0.09 | 41 | 1013.5 |
| 20260507054213 | 49 | 38 | 0.0 | 0.0 | 0.00 | 0.09 | 0.09 | 40 | 1013.4 |
| 20260507053713 | 49 | 38 | 0.9 | 1.7 | 0.00 | 0.09 | 0.09 | 40 | 1013.4 |
| 20260507053213 | 49 | 38 | 0.9 | 2.6 | 0.00 | 0.09 | 0.09 | 39 | 1013.5 |
| 20260507052713 | 50 | 38 | 0.0 | 1.7 | 0.00 | 0.09 | 0.09 | 38 | 1013.4 |
| 20260507052213 | 50 | 38 | 0.0 | 0.0 | 0.00 | 0.09 | 0.09 | 38 | 1013.4 |
| 20260507051713 | 50 | 38 | 0.0 | 0.0 | 0.00 | 0.09 | 0.09 | 37 | 1013.4 |
| 20260507051213 | 50 | 38 | 0.0 | 0.9 | 0.00 | 0.09 | 0.09 | 37 | 1013.5 |
| 20260507050713 | 50 | 38 | 0.0 | 0.0 | 0.00 | 0.09 | 0.09 | 36 | 1013.5 |
| 20260507050213 | 50 | 38 | 0.0 | 0.0 | 0.00 | 0.09 | 0.09 | 36 | 1013.6 |
| 20260507045713 | 50 | 38 | 0.0 | 0.0 | 0.00 | 0.09 | 0.09 | 37 | 1013.7 |
| 20260507045213 | 50 | 38 | 0.0 | 0.0 | 0.00 | 0.09 | 0.09 | 37 | 1013.7 |
| 20260507044713 | 50 | 38 | 0.0 | 0.0 | 0.00 | 0.09 | 0.09 | 37 | 1013.7 |
| 20260507044213 | 50 | 38 | 0.0 | 0.0 | 0.00 | 0.09 | 0.09 | 38 | 1013.7 |
| 20260507043713 | 50 | 38 | 0.0 | 0.0 | 0.00 | 0.09 | 0.09 | 38 | 1013.6 |
| 20260507043213 | 50 | 38 | 0.0 | 0.0 | 0.00 | 0.09 | 0.09 | 36 | 1013.6 |
| 20260507042713 | 50 | 38 | 0.0 | 0.0 | 0.00 | 0.09 | 0.09 | 37 | 1013.5 |
| 20260507042213 | 50 | 38 | 0.0 | 0.0 | 0.00 | 0.09 | 0.09 | 36 | 1013.5 |
| 20260507041713 | 50 | 38 | 0.0 | 0.0 | 0.00 | 0.09 | 0.09 | 35 | 1013.5 |
| 20260507041213 | 50 | 38 | 0.0 | 0.0 | 0.00 | 0.09 | 0.09 | 35 | 1013.5 |
| 20260507040713 | 50 | 38 | 0.0 | 0.0 | 0.00 | 0.09 | 0.09 | 35 | 1013.6 |
| 20260507040214 | 50 | 38 | 0.0 | 0.0 | 0.00 | 0.09 | 0.09 | 35 | 1013.6 |
| 20260507035713 | 50 | 38 | 0.0 | 0.0 | 0.00 | 0.09 | 0.09 | 35 | 1013.7 |
| 20260507035213 | 50 | 38 | 0.0 | 0.0 | 0.00 | 0.09 | 0.09 | 36 | 1013.7 |
| 20260507034713 | 50 | 38 | 0.0 | 0.0 | 0.00 | 0.09 | 0.09 | 36 | 1013.7 |
| 20260507034213 | 50 | 38 | 0.0 | 0.0 | 0.00 | 0.09 | 0.09 | 36 | 1013.6 |
| 20260507033713 | 51 | 38 | 0.0 | 0.0 | 0.00 | 0.09 | 0.09 | 35 | 1013.5 |
| 20260507033213 | 51 | 38 | 0.0 | 0.0 | 0.00 | 0.09 | 0.09 | 35 | 1013.5 |
| 20260507032713 | 51 | 38 | 0.0 | 0.0 | 0.00 | 0.09 | 0.09 | 35 | 1013.4 |
| 20260507032213 | 51 | 38 | 0.0 | 0.0 | 0.00 | 0.09 | 0.09 | 34 | 1013.2 |
| 20260507031714 | 52 | 38 | 0.0 | 0.0 | 0.00 | 0.09 | 0.09 | 34 | 1013.1 |
| 20260507031214 | 52 | 38 | 0.0 | 0.0 | 0.00 | 0.09 | 0.09 | 34 | 1013.1 |
| 20260507030713 | 52 | 38 | 0.0 | 0.0 | 0.00 | 0.09 | 0.09 | 35 | 1013.1 |
| 20260507030213 | 53 | 38 | 0.0 | 0.0 | 0.00 | 0.09 | 0.09 | 34 | 1013.1 |
| 20260507025714 | 53 | 38 | 0.0 | 0.0 | 0.00 | 0.09 | 0.09 | 34 | 1013.1 |
| 20260507025213 | 53 | 38 | 0.0 | 0.0 | 0.00 | 0.09 | 0.09 | 34 | 1013.1 |
| 20260507024714 | 54 | 38 | 0.0 | 0.0 | 0.00 | 0.09 | 0.09 | 32 | 1013.2 |
| 20260507024213 | 54 | 38 | 0.0 | 0.0 | 0.00 | 0.09 | 0.09 | 32 | 1013.2 |
| 20260507023714 | 55 | 38 | 0.0 | 0.0 | 0.00 | 0.09 | 0.09 | 32 | 1013.1 |
| 20260507023214 | 55 | 38 | 0.0 | 1.7 | 0.00 | 0.09 | 0.09 | 32 | 1013.1 |
| 20260507022714 | 55 | 38 | 0.0 | 0.0 | 0.00 | 0.09 | 0.09 | 30 | 1013.0 |
| 20260507022214 | 56 | 38 | 0.0 | 0.9 | 0.00 | 0.09 | 0.09 | 28 | 1013.1 |
| 20260507021714 | 56 | 38 | 0.0 | 0.9 | 0.00 | 0.09 | 0.09 | 30 | 1013.1 |
| 20260507021214 | 57 | 38 | 0.0 | 0.9 | 0.00 | 0.09 | 0.09 | 26 | 1013.0 |
| 20260507020714 | 57 | 38 | 0.0 | 1.7 | 0.00 | 0.09 | 0.09 | 26 | 1013.0 |
| 20260507020214 | 58 | 38 | 0.0 | 1.7 | 0.00 | 0.09 | 0.09 | 26 | 1013.0 |
| 20260507015714 | 58 | 38 | 0.9 | 3.5 | 0.00 | 0.09 | 0.09 | 26 | 1013.1 |
| 20260507015214 | 58 | 38 | 0.9 | 3.5 | 0.00 | 0.09 | 0.09 | 26 | 1013.1 |
| 20260507014714 | 59 | 38 | 0.0 | 2.6 | 0.00 | 0.09 | 0.09 | 25 | 1013.1 |
| 20260507014214 | 59 | 38 | 0.9 | 1.7 | 0.00 | 0.09 | 0.09 | 24 | 1013.1 |
| 20260507013714 | 60 | 38 | 1.7 | 3.5 | 0.00 | 0.09 | 0.09 | 24 | 1013.1 |
| 20260507013214 | 60 | 38 | 0.9 | 3.5 | 0.00 | 0.09 | 0.09 | 23 | 1013.1 |
| 20260507012714 | 60 | 38 | 0.9 | 3.5 | 0.00 | 0.09 | 0.09 | 23 | 1013.1 |
| 20260507012214 | 60 | 38 | 1.7 | 6.1 | 0.00 | 0.09 | 0.09 | 23 | 1013.2 |
| 20260507011714 | 61 | 37 | 1.7 | 6.1 | 0.00 | 0.09 | 0.09 | 23 | 1013.1 |
| 20260507011214 | 61 | 41 | 0.9 | 4.3 | 0.00 | 0.09 | 0.09 | 23 | 1013.2 |
| 20260507010714 | 61 | 38 | 0.9 | 3.5 | 0.00 | 0.09 | 0.09 | 24 | 1013.2 |
| 20260507010214 | 61 | 38 | 1.7 | 4.3 | 0.00 | 0.09 | 0.09 | 23 | 1013.2 |
| 20260507005714 | 61 | 39 | 1.7 | 4.3 | 0.00 | 0.09 | 0.09 | 24 | 1013.4 |
| 20260507005214 | 61 | 38 | 1.7 | 4.3 | 0.00 | 0.09 | 0.09 | 23 | 1013.3 |
| 20260507004714 | 61 | 39 | 2.6 | 4.3 | 0.00 | 0.09 | 0.09 | 23 | 1013.4 |
| 20260507004214 | 61 | 31 | 2.6 | 6.1 | 0.00 | 0.09 | 0.09 | 23 | 1013.4 |
| 20260507003714 | 61 | 29 | 2.6 | 6.1 | 0.00 | 0.09 | 0.09 | 23 | 1013.4 |
| 20260507003214 | 61 | 30 | 2.6 | 7.0 | 0.00 | 0.09 | 0.09 | 23 | 1013.3 |
| 20260507002714 | 61 | 46 | 1.7 | 5.2 | 0.00 | 0.09 | 0.09 | 24 | 1013.2 |
| 20260507002214 | 61 | 34 | 1.7 | 7.8 | 0.00 | 0.09 | 0.09 | 24 | 1013.3 |
| 20260507001714 | 61 | 28 | 2.6 | 7.0 | 0.00 | 0.09 | 0.09 | 23 | 1013.2 |
| 20260507001214 | 61 | 46 | 2.6 | 7.0 | 0.00 | 0.09 | 0.09 | 24 | 1013.3 |
| 20260507000714 | 60 | 42 | 2.6 | 7.0 | 0.00 | 0.09 | 0.09 | 24 | 1013.3 |
| 20260507000214 | 60 | 61 | 2.6 | 7.0 | 0.00 | 0.09 | 0.09 | 23 | 1013.3 |
| 20260506235714 | 60 | 71 | 3.5 | 7.8 | 0.00 | 0.09 | 0.09 | 23 | 1013.3 |
| 20260506235214 | 60 | 38 | 3.5 | 8.7 | 0.00 | 0.09 | 0.09 | 24 | 1013.3 |
| 20260506234714 | 60 | 39 | 3.5 | 7.0 | 0.00 | 0.09 | 0.09 | 23 | 1013.2 |
| 20260506234214 | 60 | 29 | 3.5 | 10.4 | 0.00 | 0.09 | 0.09 | 23 | 1013.3 |
| 20260506233714 | 60 | 47 | 3.5 | 7.0 | 0.00 | 0.09 | 0.09 | 24 | 1013.2 |
| 20260506233214 | 60 | 32 | 3.5 | 8.7 | 0.00 | 0.09 | 0.09 | 23 | 1013.2 |
| 20260506232714 | 61 | 50 | 2.6 | 7.8 | 0.00 | 0.09 | 0.09 | 23 | 1013.1 |
| 20260506232214 | 61 | 14 | 2.6 | 7.8 | 0.00 | 0.09 | 0.09 | 24 | 1013.2 |
| 20260506231714 | 61 | 62 | 2.6 | 6.1 | 0.00 | 0.09 | 0.09 | 24 | 1013.2 |
| 20260506231214 | 60 | 33 | 2.6 | 6.1 | 0.00 | 0.09 | 0.09 | 25 | 1013.2 |
| 20260506230714 | 60 | 34 | 3.5 | 7.8 | 0.00 | 0.09 | 0.09 | 24 | 1013.3 |
| 20260506230214 | 60 | 46 | 2.6 | 8.7 | 0.00 | 0.09 | 0.09 | 23 | 1013.2 |
| 20260506225714 | 60 | 64 | 3.5 | 7.0 | 0.00 | 0.09 | 0.09 | 25 | 1013.2 |
| 20260506225214 | 60 | 54 | 3.5 | 9.6 | 0.00 | 0.09 | 0.09 | 23 | 1013.2 |
| 20260506224714 | 61 | 106 | 2.6 | 11.3 | 0.00 | 0.09 | 0.09 | 24 | 1013.3 |
| 20260506224214 | 60 | 24 | 3.5 | 7.8 | 0.00 | 0.09 | 0.09 | 26 | 1013.4 |
| 20260506223714 | 60 | 57 | 3.5 | 11.3 | 0.00 | 0.09 | 0.09 | 24 | 1013.4 |
| 20260506223214 | 60 | 42 | 2.6 | 7.8 | 0.00 | 0.09 | 0.09 | 25 | 1013.4 |
| 20260506222714 | 60 | 65 | 2.6 | 9.6 | 0.00 | 0.09 | 0.09 | 26 | 1013.4 |
| 20260506222214 | 60 | 62 | 2.6 | 7.0 | 0.00 | 0.09 | 0.09 | 26 | 1013.4 |
| 20260506221714 | 60 | 31 | 2.6 | 7.8 | 0.00 | 0.09 | 0.09 | 26 | 1013.4 |
| 20260506221214 | 60 | 26 | 3.5 | 7.8 | 0.00 | 0.09 | 0.09 | 27 | 1013.5 |
| 20260506220714 | 60 | 28 | 3.5 | 8.7 | 0.00 | 0.09 | 0.09 | 27 | 1013.6 |
| 20260506220214 | 60 | 33 | 2.6 | 7.8 | 0.00 | 0.09 | 0.09 | 27 | 1013.5 |
| 20260506215714 | 60 | 28 | 3.5 | 5.2 | 0.00 | 0.09 | 0.09 | 27 | 1013.5 |
| 20260506215214 | 60 | 27 | 3.5 | 9.6 | 0.00 | 0.09 | 0.09 | 27 | 1013.7 |
| 20260506214714 | 60 | 313 | 3.5 | 10.4 | 0.00 | 0.09 | 0.09 | 27 | 1013.8 |
| 20260506214214 | 60 | 28 | 3.5 | 10.4 | 0.00 | 0.09 | 0.09 | 29 | 1013.8 |
| 20260506213714 | 60 | 34 | 2.6 | 8.7 | 0.00 | 0.09 | 0.09 | 27 | 1013.8 |
| 20260506213214 | 59 | 29 | 2.6 | 8.7 | 0.00 | 0.09 | 0.09 | 30 | 1013.9 |
| 20260506212714 | 59 | 57 | 2.6 | 7.8 | 0.00 | 0.09 | 0.09 | 27 | 1014.0 |
| 20260506212214 | 59 | 37 | 2.6 | 7.0 | 0.00 | 0.09 | 0.09 | 29 | 1014.1 |
| 20260506211714 | 59 | 33 | 2.6 | 6.1 | 0.00 | 0.09 | 0.09 | 29 | 1014.0 |
| 20260506211214 | 59 | 21 | 3.5 | 12.2 | 0.00 | 0.09 | 0.09 | 28 | 1014.0 |
| 20260506210714 | 59 | 327 | 2.6 | 9.6 | 0.00 | 0.09 | 0.09 | 29 | 1013.7 |
| 20260506210214 | 59 | 320 | 3.5 | 7.8 | 0.00 | 0.09 | 0.09 | 29 | 1014.0 |
| 20260506205714 | 59 | 35 | 3.5 | 11.3 | 0.00 | 0.09 | 0.09 | 29 | 1014.0 |
| 20260506205214 | 58 | 55 | 3.5 | 9.6 | 0.00 | 0.09 | 0.09 | 29 | 1014.0 |
| 20260506204714 | 58 | 40 | 3.5 | 7.8 | 0.00 | 0.09 | 0.09 | 28 | 1013.9 |
| 20260506204214 | 58 | 315 | 4.3 | 12.2 | 0.00 | 0.09 | 0.09 | 30 | 1013.9 |
| 20260506203714 | 58 | 53 | 3.5 | 7.8 | 0.00 | 0.09 | 0.09 | 30 | 1013.8 |
| 20260506203214 | 58 | 58 | 3.5 | 8.7 | 0.00 | 0.09 | 0.09 | 27 | 1014.0 |
| 20260506202714 | 58 | 57 | 3.5 | 12.2 | 0.00 | 0.09 | 0.09 | 30 | 1014.0 |
| 20260506202214 | 58 | 28 | 3.5 | 8.7 | 0.00 | 0.09 | 0.09 | 30 | 1014.1 |
| 20260506201714 | 58 | 326 | 3.5 | 11.3 | 0.00 | 0.09 | 0.09 | 29 | 1014.1 |
| 20260506201214 | 57 | 35 | 3.5 | 7.8 | 0.00 | 0.09 | 0.09 | 31 | 1014.1 |
| 20260506200714 | 57 | 35 | 4.3 | 8.7 | 0.00 | 0.09 | 0.09 | 28 | 1014.2 |
| 20260506200214 | 57 | 15 | 3.5 | 9.6 | 0.00 | 0.09 | 0.09 | 29 | 1014.1 |
| 20260506195714 | 57 | 22 | 3.5 | 10.4 | 0.00 | 0.09 | 0.09 | 29 | 1014.0 |
| 20260506195214 | 57 | 26 | 4.3 | 8.7 | 0.00 | 0.09 | 0.09 | 27 | 1014.0 |
| 20260506194714 | 57 | 30 | 3.5 | 8.7 | 0.00 | 0.09 | 0.09 | 28 | 1014.1 |
| 20260506194214 | 57 | 32 | 3.5 | 8.7 | 0.00 | 0.09 | 0.09 | 29 | 1014.0 |
| 20260506193714 | 56 | 48 | 3.5 | 8.7 | 0.00 | 0.09 | 0.09 | 29 | 1014.1 |
| 20260506193214 | 56 | 320 | 4.3 | 7.8 | 0.00 | 0.09 | 0.09 | 31 | 1013.9 |
| 20260506192714 | 56 | 22 | 4.3 | 11.3 | 0.00 | 0.09 | 0.09 | 27 | 1014.1 |
| 20260506192214 | 56 | 21 | 3.5 | 9.6 | 0.00 | 0.09 | 0.09 | 28 | 1014.1 |
| 20260506191714 | 56 | 19 | 3.5 | 7.8 | 0.00 | 0.09 | 0.09 | 31 | 1014.2 |
| 20260506191214 | 55 | 38 | 3.5 | 7.0 | 0.00 | 0.09 | 0.09 | 29 | 1014.1 |
| 20260506190714 | 55 | 32 | 3.5 | 8.7 | 0.00 | 0.09 | 0.09 | 29 | 1014.0 |
| 20260506190214 | 55 | 17 | 4.3 | 8.7 | 0.00 | 0.09 | 0.09 | 27 | 1014.1 |
| 20260506185716 | 55 | 69 | 4.3 | 10.4 | 0.00 | 0.09 | 0.09 | 27 | 1014.2 |
| 20260506185214 | 55 | 22 | 3.5 | 7.0 | 0.00 | 0.09 | 0.09 | 29 | 1014.0 |
| 20260506184714 | 55 | 30 | 3.5 | 9.6 | 0.00 | 0.09 | 0.09 | 29 | 1014.1 |
| 20260506184214 | 54 | 67 | 3.5 | 7.8 | 0.00 | 0.09 | 0.09 | 28 | 1014.1 |
| 20260506183714 | 54 | 42 | 3.5 | 7.0 | 0.00 | 0.09 | 0.09 | 28 | 1014.2 |
| 20260506183214 | 54 | 54 | 3.5 | 13.0 | 0.00 | 0.09 | 0.09 | 27 | 1014.3 |
| 20260506182714 | 54 | 17 | 3.5 | 7.0 | 0.00 | 0.09 | 0.09 | 30 | 1014.2 |
| 20260506182214 | 54 | 346 | 3.5 | 12.2 | 0.00 | 0.09 | 0.09 | 28 | 1014.2 |
| 20260506181714 | 53 | 30 | 3.5 | 9.6 | 0.00 | 0.09 | 0.09 | 31 | 1014.2 |
| 20260506181214 | 53 | 0 | 3.5 | 8.7 | 0.00 | 0.09 | 0.09 | 27 | 1014.2 |
| 20260506180714 | 53 | 31 | 3.5 | 8.7 | 0.00 | 0.09 | 0.09 | 28 | 1014.1 |
| 20260506180214 | 53 | 24 | 4.3 | 8.7 | 0.00 | 0.09 | 0.09 | 29 | 1014.0 |
| 20260506175714 | 53 | 47 | 4.3 | 9.6 | 0.00 | 0.09 | 0.09 | 28 | 1014.2 |
| 20260506175214 | 53 | 40 | 4.3 | 9.6 | 0.00 | 0.09 | 0.09 | 27 | 1014.1 |
| 20260506174714 | 53 | 37 | 4.3 | 9.6 | 0.00 | 0.09 | 0.09 | 27 | 1014.0 |
| 20260506174214 | 53 | 46 | 4.3 | 8.7 | 0.00 | 0.09 | 0.09 | 29 | 1013.9 |
| 20260506173714 | 53 | 16 | 4.3 | 8.7 | 0.00 | 0.09 | 0.09 | 29 | 1013.8 |
| 20260506173214 | 53 | 28 | 4.3 | 11.3 | 0.00 | 0.09 | 0.09 | 30 | 1013.8 |
| 20260506172714 | 52 | 65 | 4.3 | 8.7 | 0.00 | 0.09 | 0.09 | 30 | 1013.6 |
| 20260506172214 | 52 | 13 | 5.2 | 12.2 | 0.00 | 0.09 | 0.09 | 29 | 1013.6 |
| 20260506171714 | 52 | 47 | 5.2 | 10.4 | 0.00 | 0.09 | 0.09 | 30 | 1013.6 |
| 20260506171214 | 52 | 14 | 4.3 | 12.2 | 0.00 | 0.09 | 0.09 | 29 | 1013.5 |
| 20260506170715 | 52 | 20 | 4.3 | 8.7 | 0.00 | 0.09 | 0.09 | 30 | 1013.4 |
| 20260506170214 | 52 | 62 | 5.2 | 13.0 | 0.00 | 0.09 | 0.09 | 28 | 1013.4 |
| 20260506165714 | 52 | 15 | 4.3 | 12.2 | 0.00 | 0.09 | 0.09 | 25 | 1013.3 |
| 20260506165215 | 51 | 19 | 4.3 | 9.6 | 0.00 | 0.09 | 0.09 | 28 | 1013.3 |
| 20260506164715 | 51 | 32 | 4.3 | 10.4 | 0.00 | 0.09 | 0.09 | 26 | 1013.2 |
| 20260506164214 | 51 | 49 | 4.3 | 7.8 | 0.00 | 0.09 | 0.09 | 27 | 1013.1 |
| 20260506163715 | 51 | 44 | 4.3 | 8.7 | 0.00 | 0.09 | 0.09 | 26 | 1013.0 |
| 20260506163214 | 51 | 51 | 4.3 | 8.7 | 0.00 | 0.09 | 0.09 | 28 | 1012.9 |
| 20260506162715 | 51 | 34 | 4.3 | 12.2 | 0.00 | 0.09 | 0.09 | 26 | 1012.9 |
| 20260506162214 | 52 | 37 | 4.3 | 7.8 | 0.00 | 0.09 | 0.09 | 27 | 1012.6 |
| 20260506161715 | 51 | 114 | 3.5 | 10.4 | 0.00 | 0.09 | 0.09 | 29 | 1012.6 |
| 20260506161215 | 51 | 26 | 4.3 | 7.0 | 0.00 | 0.09 | 0.09 | 29 | 1012.5 |
| 20260506160715 | 51 | 33 | 4.3 | 12.2 | 0.00 | 0.09 | 0.09 | 31 | 1012.3 |
| 20260506160215 | 51 | 90 | 4.3 | 9.6 | 0.00 | 0.09 | 0.09 | 35 | 1012.3 |
| 20260506155715 | 50 | 26 | 3.5 | 7.8 | 0.00 | 0.09 | 0.09 | 35 | 1012.3 |
| 20260506155215 | 50 | 25 | 4.3 | 8.7 | 0.00 | 0.09 | 0.09 | 36 | 1012.3 |
| 20260506154715 | 50 | 36 | 4.3 | 9.6 | 0.00 | 0.09 | 0.09 | 36 | 1012.1 |
| 20260506154215 | 50 | 76 | 4.3 | 9.6 | 0.00 | 0.09 | 0.09 | 37 | 1012.1 |
| 20260506153715 | 50 | 74 | 4.3 | 8.7 | 0.00 | 0.09 | 0.09 | 37 | 1012.0 |
| 20260506153215 | 50 | 34 | 3.5 | 10.4 | 0.00 | 0.09 | 0.09 | 38 | 1011.9 |
| 20260506152715 | 50 | 80 | 3.5 | 8.7 | 0.00 | 0.09 | 0.09 | 37 | 1011.9 |
| 20260506152215 | 50 | 47 | 3.5 | 10.4 | 0.00 | 0.09 | 0.09 | 40 | 1011.8 |
| 20260506151715 | 50 | 35 | 3.5 | 7.0 | 0.00 | 0.09 | 0.09 | 40 | 1011.7 |
| 20260506151215 | 50 | 30 | 3.5 | 8.7 | 0.00 | 0.09 | 0.09 | 40 | 1011.6 |
| 20260506150715 | 50 | 67 | 3.5 | 8.7 | 0.00 | 0.09 | 0.09 | 42 | 1011.6 |
| 20260506150215 | 50 | 56 | 2.6 | 8.7 | 0.00 | 0.09 | 0.09 | 46 | 1011.6 |
| 20260506145715 | 50 | 46 | 2.6 | 6.1 | 0.00 | 0.09 | 0.09 | 47 | 1011.5 |
| 20260506145215 | 50 | 24 | 2.6 | 6.1 | 0.00 | 0.09 | 0.09 | 47 | 1011.4 |
| 20260506144715 | 50 | 5 | 1.7 | 7.0 | 0.00 | 0.09 | 0.09 | 47 | 1011.3 |
| 20260506144215 | 50 | 348 | 2.6 | 5.2 | 0.00 | 0.09 | 0.09 | 47 | 1011.3 |
| 20260506143715 | 49 | 346 | 2.6 | 7.0 | 0.00 | 0.09 | 0.09 | 46 | 1011.2 |
| 20260506143215 | 49 | 341 | 1.7 | 6.1 | 0.00 | 0.09 | 0.09 | 47 | 1011.1 |
| 20260506142715 | 49 | 338 | 1.7 | 5.2 | 0.00 | 0.09 | 0.09 | 49 | 1011.2 |
| 20260506142215 | 49 | 337 | 1.7 | 6.1 | 0.00 | 0.09 | 0.09 | 48 | 1011.3 |
| 20260506141715 | 48 | 329 | 1.7 | 4.3 | 0.00 | 0.09 | 0.09 | 50 | 1011.2 |
| 20260506141215 | 48 | 326 | 1.7 | 4.3 | 0.00 | 0.09 | 0.09 | 50 | 1011.2 |
| 20260506140715 | 47 | 321 | 1.7 | 6.1 | 0.00 | 0.09 | 0.09 | 52 | 1011.1 |
| 20260506140215 | 47 | 321 | 1.7 | 6.1 | 0.00 | 0.09 | 0.09 | 55 | 1011.0 |
| 20260506135715 | 46 | 320 | 1.7 | 3.5 | 0.00 | 0.09 | 0.09 | 56 | 1011.0 |
| 20260506135215 | 46 | 320 | 1.7 | 4.3 | 0.00 | 0.09 | 0.09 | 57 | 1010.9 |
| 20260506134715 | 45 | 320 | 1.7 | 3.5 | 0.00 | 0.09 | 0.09 | 61 | 1010.8 |
| 20260506134215 | 44 | 320 | 0.9 | 4.3 | 0.00 | 0.09 | 0.09 | 63 | 1010.6 |
| 20260506133715 | 44 | 320 | 0.9 | 3.5 | 0.00 | 0.09 | 0.09 | 67 | 1010.6 |
| 20260506133215 | 43 | 320 | 0.9 | 2.6 | 0.00 | 0.09 | 0.09 | 68 | 1010.5 |